Location: Mohawk View
(42.7837°N, 73.7885°W)
Time: 05:45:38
(UTC+00:00)

Cosmos 1933 - Pass Details

Date: 17 June 2021
Orbit: 547 x 562 km, 82.5° (Epoch: 03 August)

Event Time Altitude Azimuth Distance (km) Brightness Sun altitude
Rises 07:34:22 0° 351° (N) 2,759 7.6 -14.5°
Reaches altitude 10° 07:36:33 10° 350° (N) 1,860 6.6 -14.2°
Maximum altitude 07:40:39 82° 264° (W) 573 3.3 -13.8°
Enters shadow 07:44:17 13° 176° (S) 1,670 5.3 -13.3°
